CANX-4 (40055 NORAD) Tracking and Keplerian Element Data

This shows tracking and keplerian element data for the satellite.

Feedback or suggestion? Click here.




ElementValue
Catalog40055
NameCANX-4
Epoch Orbit23570
Epoch Day319.85990738
Epoch Year2018
RAAN67.7514
Inclination98.2031
Eccentricity0.0013694
Argument of Perigee207.6034
Mean Anonmoly152.4449
Mean Motion14.74768422
Decay Rate1.13E-06
L11 40055U 14034C 18319.85990738 .00000113 00000-0 24886-4 0 9994
L22 40055 98.2031 67.7514 0013694 207.6034 152.4449 14.74768422235705

Live tracking and technical data element details for CANX-4 (NORAD 40055). CANX-4 can be tracked NOW for your location showing map with azimuth and elevation plus other details from your city location.

Track the satellite on the map from your city or location and see movement details for azimuth, elevation, latitude, longitude, range, height, and movement on the map or in text.







IsCatalogInMostPopularTable: catalog: 40055, numindb: 94
Update: records affected: 1



GetName: 40055 CANX-4

Hit Count: updated at: Fri, 16 Nov 2018 06:14:17 GMT